Погода в Араше

Бразилия     19°35′42″S   46°56′19″W
темп.,
°C
ветер,
м/с
пор.,
м/с
влажн.,
%
обл.,
%
осадки,
мм/ч
давл.,
гПа
погр.,
м
27 февраля, сб
сб2700:00+18в2797100 0.1 1014244
03:00+17всв3897100 0.2 1013448
06:00+17в2599100 1.1 1013259
09:00+20всв479399 1.4 1015553
12:00+22св478868 4.4 1014886
15:00+22ссв478861 10.8 1012883
18:00+20всв389327 3.8 1011553
21:00+17всв299742 4.6 1013387
28 февраля, вс
вс2800:00+18в259699 0.0 1014189
03:00+17в379591 0.1 1012212
06:00+16в389833 0.0 1013272
09:00+21всв588621 0.0 1015697
12:00+24св577286 0.1 10141161
15:00+25св466975 0.6 10111296
18:00+21всв36912 1.4 1010332
21:00+18в249640 1.4 1012101
1 марта, пн
пн100:00+17в259699 0.1 1013132
03:00+17в269799 0.2 1012181
06:00+17в3997100 0.1 1013378
09:00+21всв4787100 0.1 1014688
12:00+24св457587 0.8 10131048
15:00+24св347888 2.4 1010963
18:00+21в259198 2.6 1010193
21:00+19в4109599 6.3 1012332
2 марта, вт
вт200:00+18в259685 0.2 1014140
03:00+17в269768 0.9 1013183
06:00+17в379799 0.0 1014291
09:00+20св478592 0.0 1016654
12:00+25св466955 0.0 10151169
15:00+26св356543 0.1 10121382
18:00+22св25824 0.1 1011118
21:00+18в379052 0.1 1014179
3 марта, ср
ср300:00+17в23963 0.0 101682
03:00+17всв129535 0.0 101527
06:00+16в2294100 0.0 101673
09:00+21св3780100 0.0 1018617
12:00+25ссв4569100 0.0 10161133
15:00+26ссв346790 0.1 10131271
18:00+21сз2290100 1.1 101284
21:00+19ю1192100 1.4 101523